OPS 7613 (P/L 4)

Satellite information

Favourite Embed

Satellite Type and Status

PAYLOADIN ORBIT

Key statistics

Satellite OPS 7613 (P/L 4) at a glance.

Uptime

20307

Days in orbit

Revolutions

≈ 14.0

Per day

Orbit

LEO

Low Earth Orbit

Inclination

70.0

Latest

Satellite identification and parameters

Extended collection of information and parameters for OPS 7613 (P/L 4).

Object identification

Identified? True

Debris? False

Object name: OPS 7613 (P/L 4)

International designator: 1969-082E

Object number (NORAD): 4237

Object ID (CCSDS): 4237

Country: UNITED STATES OF AMERICA (US)

Current information (Y/N): Y

RCS size: MEDIUM

Orbital parameters

Period: 103.158 minutes

Inclination: 70.0148 deg

SMA: 7286.129 km

Apoapsis: 924.512 km

Periapsis: 891.476 km

RAAN: 256.0375 deg

Eccentricy: 0.002267

Argument of periapsis: 298.7925 deg

Mean anomaly: 194.334 deg

Mean motion: 13.9591023 rev/day

Mean motion (dot): 0.00000088 rev/day2

B* drag term: 0.00010285 1/REarth

Two-line elements (TLE)

Creation date: May 5, 2025, 2:11 a.m.

Reference frame: TEME

Reference center: EARTH

Epoch: May 4, 2025, 9:30 p.m. UTC

TLE line 0: 0 OPS 7613 (P/L 4)

TLE line 1: 1 04237U 69082E 25124.89638192 .00000088 00000-0 10285-3 0 9996

TLE line 2: 2 04237 70.0148 256.0375 0022670 298.7925 194.3340 13.95910230829326

Live tracking on map

Real-time ground track for satellite OPS 7613 (P/L 4).

In-orbit conjunctions

There are no conjunctions computed for OPS 7613 (P/L 4), at the moment. Check back to stay up to date, as we update our databases every day.

Go to all conjunctions

Associated space launch

Poppy was the follow-on ELINT system, which succeeded the Grab ELINT satellite system.

OPS 7613 (P/L 4) was lifted into orbit during the mission ‘Thorad SLV-2G Agena D | Poppy 8A,B,C,D’, on board a Thorad SLV-2G Agena D space rocket.

The launch took place on Sept. 30, 1969, 1:40 p.m. from Space Launch Complex 1W.

For more information about the launch, click the button.

Launch to space Thorad SLV-2G Agena D | Poppy 8A,B,C,D
Thorad SLV-2G Agena D | Poppy 8A,B,C,D

Agency: N/A

Status: Launch Successful

Launch date: Sept. 30, 1969, 1:40 p.m. UTC

Rocket: Thorad SLV-2G Agena D

Launch pad: Space Launch Complex 1W

Location: Vandenberg SFB, CA, USA

...

Latest news about this satellite

There are no fresh news available about this satellite. Check back as we update our databases every day.


Newsletter sign-up

Weekly statistics, charts and insights to help you stay on top of the space industry.